Location: Newark
(35.5261°N, 36.5886°E)
Time: 17:57:43
(UTC+00:00)

LightSail 2 - Visible Passes

Search period start: 12 November 2019 00:00
Search period end: 22 November 2019 00:00
Orbit: 701 x 726 km, 24.0° (Epoch: 11 November)

Date Brightness Start Highest point End Pass type
(mag) Time Alt. Az. Time Alt. Az. Time Alt. Az.
12 Nov 7.9 00:59:29 11° SE 00:59:29 11° SE 00:59:53 10° SE visible
12 Nov 7.0 02:38:28 13° SW 02:41:49 22° S 02:45:49 10° SE visible
13 Nov 7.0 01:44:18 21° S 01:44:18 21° S 01:47:59 10° SE visible
13 Nov 7.1 03:25:08 10° SW 03:29:02 22° S 03:32:58 10° SE visible
14 Nov 6.9 02:29:05 17° SW 02:31:20 22° S 02:35:20 10° SE visible
15 Nov 7.1 01:34:50 21° SSE 01:34:50 21° SSE 01:37:37 10° SE visible
15 Nov 7.2 03:14:58 10° SW 03:18:31 19° S 03:22:05 10° SSE visible
16 Nov 6.9 02:19:34 19° SSW 02:20:48 20° S 02:24:36 10° SE visible
17 Nov 7.4 01:25:17 17° SSE 01:25:17 17° SSE 01:26:59 10° SE visible
17 Nov 7.3 03:05:10 10° SW 03:07:56 14° SSW 03:10:41 10° SSE visible
18 Nov 7.1 02:09:59 17° SSW 02:10:13 17° SSW 02:13:30 10° SSE visible
19 Nov 7.8 01:15:42 11° SSE 01:15:42 11° SSE 01:16:05 10° SE visible
20 Nov 7.5 02:00:24 12° S 02:00:24 12° S 02:01:45 10° S visible
